TimeCET,TemperatureF,Dew PointF,Humidity,Sea Level PressureIn,VisibilityMPH,Wind Direction,Wind SpeedMPH,Gust SpeedMPH,PrecipitationIn,Events,Conditions,WindDirDegrees,DateUTC
12:20 AM,53.6,39.2,58,30.36,6.2,ENE,12.7,-,N/A,,Scattered Clouds,60,2011-11-12 23:20:00
12:50 AM,51.8,39.2,62,30.33,6.2,ENE,9.2,-,N/A,,Scattered Clouds,60,2011-11-12 23:50:00
1:00 AM,,,,,11,Calm,Calm,,,,,,2011-11-13 00:00:00
1:20 AM,53.6,39.2,58,30.36,6.2,NE,6.9,-,N/A,,Partly Cloudy,40,2011-11-13 00:20:00
1:50 AM,50.0,37.4,62,30.33,6.2,NE,8.1,-,N/A,,Scattered Clouds,50,2011-11-13 00:50:00
2:20 AM,50.0,37.4,62,30.36,6.2,NE,9.2,-,N/A,,Scattered Clouds,40,2011-11-13 01:20:00
2:50 AM,50.0,37.4,62,30.36,6.2,NNE,8.1,-,N/A,,Scattered Clouds,30,2011-11-13 01:50:00
3:20 AM,50.0,37.4,62,30.36,-9999.0,NE,9.2,-,N/A,,Clear,40,2011-11-13 02:20:00
3:50 AM,50.0,37.4,62,30.33,-9999.0,NE,9.2,-,N/A,,Clear,50,2011-11-13 02:50:00
4:00 AM,51,38,49,30.36,11,NE,10.4,,,,,40,2011-11-13 03:00:00
4:20 AM,50.0,37.4,62,30.33,-9999.0,NE,10.4,-,N/A,,Clear,40,2011-11-13 03:20:00
4:50 AM,50.0,37.4,62,30.33,-9999.0,NNE,8.1,-,N/A,,Clear,30,2011-11-13 03:50:00
5:20 AM,50.0,37.4,62,30.33,-9999.0,NNE,8.1,-,N/A,,Clear,30,2011-11-13 04:20:00
5:50 AM,50.0,37.4,62,30.33,-9999.0,NE,9.2,-,N/A,,Clear,40,2011-11-13 04:50:00
6:20 AM,50.0,37.4,62,30.36,-9999.0,NNE,8.1,-,N/A,,Clear,30,2011-11-13 05:20:00
6:50 AM,50.0,37.4,62,30.36,5.0,NNE,11.5,-,N/A,,Unknown,30,2011-11-13 05:50:00
7:00 AM,52,38,47,30.37,5,NNE,16.1,,,,,30,2011-11-13 06:00:00
7:20 AM,50.0,37.4,62,30.36,-9999.0,ENE,6.9,-,N/A,,Clear,60,2011-11-13 06:20:00
7:50 AM,51.8,37.4,58,30.36,-9999.0,ENE,3.5,-,N/A,,Clear,60,2011-11-13 06:50:00
8:20 AM,53.6,39.2,58,30.39,-9999.0,ENE,10.4,-,N/A,,Clear,70,2011-11-13 07:20:00
8:50 AM,53.6,37.4,54,30.39,-9999.0,ENE,18.4,32.2,N/A,,Clear,60,2011-11-13 07:50:00
9:20 AM,55.4,39.2,54,30.39,-9999.0,ENE,17.3,32.2,N/A,,Clear,70,2011-11-13 08:20:00
9:50 AM,55.4,39.2,54,30.39,-9999.0,ENE,20.7,-,N/A,,Clear,70,2011-11-13 08:50:00
10:00 AM,56,39,41,30.40,12,ENE,16.1,,,,,70,2011-11-13 09:00:00
10:20 AM,55.4,39.2,54,30.36,-9999.0,ENE,16.1,28.8,N/A,,Clear,70,2011-11-13 09:20:00
10:50 AM,57.2,39.2,51,30.39,-9999.0,ENE,16.1,-,N/A,,Clear,70,2011-11-13 09:50:00
11:20 AM,59.0,39.2,48,30.36,-9999.0,ENE,13.8,-,N/A,,Clear,60,2011-11-13 10:20:00
11:50 AM,59.0,39.2,48,30.36,-9999.0,ENE,11.5,-,N/A,,Clear,70,2011-11-13 10:50:00
12:20 PM,60.8,41.0,48,30.36,-9999.0,ENE,9.2,-,N/A,,Clear,60,2011-11-13 11:20:00
12:50 PM,59.0,39.2,48,30.33,-9999.0,NE,16.1,-,N/A,,Clear,50,2011-11-13 11:50:00
1:20 PM,60.8,39.2,45,30.33,-9999.0,ENE,16.1,-,N/A,,Clear,60,2011-11-13 12:20:00
1:50 PM,60.8,39.2,45,30.33,-9999.0,NE,16.1,-,N/A,,Clear,50,2011-11-13 12:50:00
2:20 PM,59.0,39.2,48,30.33,-9999.0,ENE,16.1,-,N/A,,Clear,60,2011-11-13 13:20:00
2:50 PM,59.0,39.2,48,30.33,-9999.0,NE,17.3,-,N/A,,Clear,50,2011-11-13 13:50:00
3:20 PM,59.0,39.2,48,30.33,-9999.0,NE,17.3,-,N/A,,Clear,40,2011-11-13 14:20:00
3:50 PM,57.2,39.2,51,30.33,-9999.0,NE,16.1,-,N/A,,Clear,50,2011-11-13 14:50:00
4:00 PM,58,39,37,30.36,12,NE,17.3,,,,Scattered Clouds,50,2011-11-13 15:00:00
4:20 PM,57.2,39.2,51,30.33,-9999.0,NE,19.6,-,N/A,,Clear,50,2011-11-13 15:20:00
4:50 PM,57.2,39.2,51,30.36,-9999.0,ENE,18.4,-,N/A,,Clear,60,2011-11-13 15:50:00
5:20 PM,55.4,37.4,51,30.36,-9999.0,ENE,13.8,-,N/A,,Clear,70,2011-11-13 16:20:00
5:50 PM,55.4,37.4,51,30.36,-9999.0,ENE,11.5,-,N/A,,Clear,70,2011-11-13 16:50:00
6:20 PM,55.4,39.2,54,30.36,-9999.0,ENE,12.7,-,N/A,,Clear,60,2011-11-13 17:20:00
6:50 PM,55.4,39.2,54,30.36,-9999.0,ENE,13.8,-,N/A,,Clear,60,2011-11-13 17:50:00
7:00 PM,54,39,46,30.38,12,ENE,15.0,,,,Scattered Clouds,60,2011-11-13 18:00:00
7:20 PM,53.6,39.2,58,30.36,-9999.0,ENE,10.4,-,N/A,,Clear,60,2011-11-13 18:20:00
7:50 PM,53.6,39.2,58,30.36,-9999.0,ENE,9.2,-,N/A,,Clear,70,2011-11-13 18:50:00
8:20 PM,53.6,39.2,58,30.36,-9999.0,NE,17.3,29.9,N/A,,Clear,50,2011-11-13 19:20:00
8:50 PM,53.6,41.0,62,30.36,-9999.0,NE,12.7,-,N/A,,Clear,50,2011-11-13 19:50:00
9:20 PM,51.8,39.2,62,30.36,-9999.0,NNE,4.6,-,N/A,,Clear,30,2011-11-13 20:20:00
9:50 PM,51.8,39.2,62,30.36,-9999.0,NNE,5.8,-,N/A,,Clear,20,2011-11-13 20:50:00
10:00 PM,51,39,54,30.37,12,North,5.8,,,,,10,2011-11-13 21:00:00
10:20 PM,51.8,39.2,62,30.36,-9999.0,NNE,5.8,-,N/A,,Clear,30,2011-11-13 21:20:00
10:50 PM,51.8,39.2,62,30.33,-9999.0,NNE,9.2,-,N/A,,Clear,30,2011-11-13 21:50:00
11:20 PM,50.0,39.2,66,30.33,-9999.0,NE,6.9,-,N/A,,Clear,40,2011-11-13 22:20:00
11:50 PM,51.8,39.2,62,30.33,-9999.0,NNE,10.4,-,N/A,,Clear,20,2011-11-13 22:50:00